Hourly Data Report for April 22, 2021

OTTAWA INTL A
ONTARIO
Current Station Operator: NAVCAN

45°19'00.000" N
75°40'00.000" W
114.90 m
6106001
71628
YOW

Download Data

Hourly Data (April 2021)
Hourly Data Report for April 22, 2021
TIME
LST
Temp Definition
°C
Dew Point Definition
°C
Rel Hum Definition
%
Precip. Amount Definition
mm

Wind Dir Definition
10's deg

Wind Spd Definition
km/h
Visibility Definition
km
Stn Press Definition
kPa
Hmdx Definition


Wind Chill Definition


Weather Definition


00:00 -2.2 -4.6 83   30 16 16.1 99.48   -7 Snow Showers
01:00 -2.3 -5.8 77   32 17 16.1 99.41   -8 Snow Showers
02:00 -3.1 -4.8 88   30 14 16.1 99.36   -8 Snow Showers
03:00 -2.5 -5.2 81   29 20 16.1 99.32   -8 Snow Showers
04:00 -3.0 -4.2 91   32 18 2.4 99.30   -9 Snow Showers
05:00 -3.1 -4.4 91   33 14 1.0 99.31   -8 Snow
06:00 -3.2 -5.2 86   29 18 16.1 99.33   -9 Snow
07:00 -2.2 -6.2 74   31 24 24.1 99.34   -9 Mostly Cloudy
08:00 -1.9 -8.6 60   30 24 24.1 99.34   -8 LegendNANA
09:00 -0.9 -8.4 57   29 29 24.1 99.30   -8 LegendNANA
10:00 1.1 -7.3 54   30 38 24.1 99.31     Mostly Cloudy
11:00 2.2 -9.2 43   30 31 24.1 99.29     LegendNANA
12:00 3.2 -10.7 35   29 41 24.1 99.26     LegendNANA
13:00 4.3 -10.0 35   29 39 24.1 99.22     Mostly Cloudy
14:00 4.9 -10.2 33   28 44 24.1 99.21     LegendNANA
15:00 5.4 -10.6 31   29 40 24.1 99.19     LegendNANA
16:00 5.4 -11.0 30   28 43 24.1 99.20     Mostly Cloudy
17:00 6.0 -11.0 29   28 36 24.1 99.22     LegendNANA
18:00 5.9 -11.5 28   28 39 24.1 99.24     LegendNANA
19:00 5.3 -9.2 34   29 39 24.1 99.31     Mostly Cloudy
20:00 3.8 -8.2 41   27 15 24.1 99.41     LegendNANA
21:00 2.6 -8.0 46   26 14 24.1 99.45     LegendNANA
22:00 1.9 -7.0 52   27 15 24.1 99.47     Clear
23:00 0.2 -7.0 58   26 11 24.1 99.47     LegendNANA

Notes on Data Quality.

Legend

  • E = Estimated
  • M = Missing
  • NA = Not Available*
  • [empty] = Indicates an unobserved value
Date modified: